SCP
0 0 0 0 0 0 0 0 0 0 0 0 0 0 0 0 0 0 0 -0 -0 -0 0 0 0 -0 0 0 -0 -0 -0 -0 -0 -0 -0 -0 -0 -0 -0 0 0 0 0 0
0 0 0 0 0 0 0 0 0 0 0 0 0 0 -0 0 0 0 0 0 -0 -0 0 -0 0 -0 0 0 0 -0 -0 -0 -0 -0 0 0 -0 -0 -0 -0 0 0 0 0
0 0 0 0 0 0 0 0 0 0 0 0 0 0 0 0 0 0 0 0 0 0 -0 -0 -0 0 0 0 0 0 -0 0 0 -0 0 0 0 0 0 -0 0 0 0 0
0 0 0 0 0 0 0 0 0 0 0 0 0 0 0 0 -0 -0 0 0 0 0 0 0 0 0 0 0 0 0 0 0 0 0 0 0 0 0 0 -0 -0 0 0 -0
0 0 0 0 0 0 0 0 0 0 0 0 0 0 0 0 0 0 0 0 0 0 0 0 0 0 0 0 0 0 0 0 0 0 0 0 0 0 -0 -0 -0 -0 -0 -0
0 0 0 0 0 0 0 0 0 0 0 0 0 0 0 0 0 -0 -0 -0 -0 -0 0 0 0 0 0 0 0 0 0 0 0 0 0 0 0 0 0 -0 -0 -0 -0 -0
0 0 0 0 0 0 0 0 0 0 0 0 0 0 0 0 0 0 0 0 0 0 0 0 0 0 0 0 0 0 0 0 0 0 0 0 0 0 -0 -0 -0 -0 -0 -0
0 0 0 0 0 0 0 0 0 0 0 0 0 0 0 0 0 0 0 0 0 -0 0 0 0 0 0 0 0 0 0 0 0 0 0 0 0 0 0 -0 -0 -0 -0 0
0 0 0 0 0 0 0 0 0 0 0 0 0 0 0 0 0 0 0 0 0 0 -0 0 0 0 0 0 0 0 0 0 0 0 0 0 0 0 0 -0 -0 -0 -0 -0
0 0 0 0 0 0 0 0 0 0 0 0 0 0 0 0 0 0 0 0 0 0 0 0 0 0 0 0 0 0 0 0 0 0 0 0 0 0 0 0 -0 -0 -0 -0
0 0 0 0 0 0 0 0 0 0 0 0 0 0 0 0 0 0 0 0 0 0 0 0 0 0 0 0 0 0 0 0 0 0 0 0 0 0 0 0 0 -0 -0 -0
0 0 0 0 0 0 0 0 0 0 0 0 0 0 0 0 0 0 0 0 0 0 0 0 0 0 0 0 0 0 0 0 0 0 0 0 0 0 0 0 0 0 -0 0
0 0 0 0 0 0 0 0 0 0 0 0 0 0 0 0 0 0 0 0 0 0 0 0 0 0 0 0 0 0 0 0 0 0 0 0 0 0 0 0 0 0 0 0
0 0 0 0 0 0 0 0 0 0 0 0 0 0 0 0 0 0 0 0 0 0 0 0 0 0 0 0 0 0 0 0 0 0 0 0 0 0 0 0 0 0 0 0
0 0 0 0 0 0 0 0 0 0 0 0 0 0 0 0 0 0 0 0 0 0 0 0 0 0 0 0 0 0 0 0 0 0 0 0 0 0 0 0 0 0 0 0
0 0 0 0 0 0 0 0 0 0 0 0 0 0 0 0 0 0 0 0 0 0 0 0 0 0 0 0 0 0 0 0 0 0 0 0 0 0 0 0 0 0 0 0
0 0 0 0 0 0 0 0 0 0 0 0 0 0 0 0 0 0 0 0 0 0 0 0 0 0 0 0 0 0 0 0 0 0 0 0 0 0 0 0 0 0 0 0
0 0 0 0 0 0 0 0 0 0 0 0 0 0 0 0 0 0 0 0 0 0 0 0 0 0 0 0 0 0 0 0 0 0 0 0 0 0 0 0 0 0 0 0
0 0 0 0 0 0 0 0 0 0 0 0 0 0 0 0 0 0 0 0 0 0 0 0 0 0 0 0 0 0 0 0 0 0 0 0 0 0 0 0 0 0 0 0
0 0 0 0 0 0 0 0 0 0 0 0 0 0 0 0 0 0 0 0 0 0 0 0 0 0 0 0 0 0 0 0 0 0 0 0 0 0 0 0 0 0 0 0
0 0 0 0 0 0 0 0 0 0 0 0 0 0 0 0 0 0 0 0 0 0 0 0 0 0 0 0 0 0 0 0 0 0 0 0 0 0 0 0 0 1 0 0
0 0 0 0 0 0 0 0 0 0 0 0 0 0 0 0 0 0 0 0 0 0 0 0 0 0 0 0 0 0 0 0 0 0 0 0 0 0 0 0 0 0 1 1
0 0 0 0 0 0 0 0 0 0 0 0 0 0 0 0 -0 0 0 0 0 0 0 0 0 0 0 0 0 0 0 0 0 0 -0 0 0 0 0 0 0 0 0 1
0 0 0 0 0 0 0 0 0 0 0 0 0 -0 -0 -0 -0 0 0 0 0 -0 0 0 0 0 0 0 0 0 0 0 0 0 0 0 0 0 0 0 0 0 0 0
0 0 0 0 0 0 0 0 0 0 0 0 0 0 0 -0 -0 -0 -0 0 0 0 0 0 0 0 0 0 0 0 0 0 0 -0 -0 0 0 0 0 -0 0 0 0 0
0 0 0 0 0 0 0 0 0 0 0 0 0 0 0 0 0 0 -0 -0 0 0 0 0 0 0 0 0 0 0 0 -0 0 0 -0 0 -0 0 0 0 0 0 0 0
Wind_Speed_500mb
9 8 10 14 12 8 7 8 1 4 8 8 17 14 15 29 27 35 46 60 61 66 74 62 61 65 61 62 61 58 54 44 39 36 32 31 26 18 16 13 8 7 15 15
9 7 15 11 14 10 5 6 4 6 3 14 7 6 8 22 9 36 44 49 58 56 62 69 66 69 71 68 67 62 56 48 39 37 34 30 23 20 15 14 12 9 14 11
12 10 12 9 7 9 5 7 6 8 7 5 3 7 5 4 9 22 39 44 44 57 68 73 72 76 78 74 72 69 62 52 44 37 41 37 26 25 20 21 17 12 12 12
7 2 10 5 4 11 3 15 11 4 4 4 4 6 2 7 9 12 22 35 51 55 61 81 74 79 86 81 75 71 68 57 48 48 51 44 35 30 25 20 18 13 10 16
11 11 7 6 13 12 15 12 13 9 6 4 4 8 10 3 14 23 30 38 50 59 64 69 88 80 81 87 81 73 72 68 50 51 56 52 45 36 28 25 23 20 16 15
1 3 6 7 5 16 8 11 14 10 7 4 4 8 11 9 14 15 9 37 53 68 60 71 73 86 81 84 84 79 75 73 56 51 51 56 52 47 39 36 30 26 21 19
12 7 12 9 1 7 11 12 5 5 4 9 9 9 2 14 12 14 21 25 59 73 65 61 71 84 89 87 92 88 80 77 68 57 54 50 53 51 47 41 35 28 28 24
6 8 14 20 6 1 4 11 11 11 11 8 4 10 9 10 23 34 30 34 28 69 80 82 74 81 86 90 95 96 90 83 74 66 58 50 49 54 55 44 43 36 30 27
7 4 10 8 10 5 1 9 5 13 6 8 3 8 3 30 32 53 54 48 54 42 75 86 88 80 84 88 90 97 95 88 81 70 62 58 53 53 59 52 48 44 34 29
2 7 5 11 12 18 14 2 6 6 8 6 7 6 6 33 40 40 51 61 69 18 55 62 67 87 83 85 88 89 97 93 84 78 68 61 57 54 54 60 53 50 43 39
4 6 9 9 16 10 12 10 10 9 6 10 8 5 13 18 26 30 43 53 64 57 14 37 45 57 68 74 83 92 94 93 93 87 78 69 63 56 55 56 60 57 48 44
7 8 9 3 7 6 9 4 5 8 6 5 7 3 11 20 31 34 41 49 65 66 51 25 15 25 44 66 73 82 89 91 87 92 87 78 68 61 57 59 58 61 60 53
2 7 7 7 11 10 11 10 5 7 5 3 8 6 12 26 30 39 39 50 57 71 66 60 40 28 18 36 60 72 76 83 84 85 91 89 79 74 65 57 57 61 63 63
15 7 6 12 6 5 4 7 7 7 7 8 3 9 15 21 24 40 43 45 51 65 69 59 59 48 31 11 29 46 59 65 66 70 77 87 87 81 75 67 60 59 63 67
9 7 6 5 2 4 5 8 9 1 7 5 9 10 12 16 22 32 42 43 52 53 62 63 58 53 45 33 8 23 34 45 56 64 67 72 78 82 82 78 74 66 62 68
8 5 4 5 6 7 4 9 7 6 7 9 17 10 9 15 29 43 46 48 47 50 48 49 51 56 57 43 34 14 15 28 38 59 68 66 67 69 71 73 76 74 70 67
7 9 5 3 6 4 6 6 2 7 8 2 6 4 10 14 24 30 39 45 49 48 45 45 44 44 49 57 45 27 13 18 23 41 44 58 67 70 70 65 69 73 72 69
10 8 5 5 3 5 8 4 3 13 12 9 9 9 14 17 10 13 28 34 38 42 44 43 44 40 40 42 50 45 27 14 12 11 37 48 52 54 57 65 69 67 67 71
6 9 6 7 5 6 3 4 5 5 6 7 6 15 16 31 25 21 15 30 32 35 37 40 42 43 36 33 38 48 45 28 16 15 17 34 51 57 61 62 63 66 66 67
10 12 8 5 7 12 7 8 9 10 5 8 5 2 14 31 7 5 24 47 46 38 37 44 43 43 39 35 25 33 46 43 33 24 19 22 24 33 40 40 47 51 61 59
6 6 10 5 4 10 7 10 13 10 7 12 1 9 13 6 16 48 58 59 54 54 50 43 45 45 40 40 36 27 31 41 46 42 33 21 29 33 31 34 32 33 28 42
10 10 7 5 5 14 19 7 11 6 5 2 3 10 22 28 39 47 51 56 58 57 58 49 48 48 47 39 38 42 32 31 39 49 51 50 26 20 44 46 36 34 39 37
4 11 8 13 10 4 23 10 7 5 5 5 11 13 20 31 37 47 59 60 62 62 64 63 56 55 52 50 38 44 44 36 30 35 42 51 54 37 25 40 53 50 43 44
7 11 6 4 5 19 25 17 16 15 12 9 8 11 21 35 46 55 63 69 70 69 67 66 61 63 65 56 52 45 45 48 37 39 38 38 42 51 35 31 36 50 56 58
8 19 11 7 14 9 22 32 27 24 21 18 22 29 35 39 49 56 62 62 72 75 69 64 67 64 67 62 61 53 44 47 42 45 49 46 43 47 57 46 37 48 54 63
20 14 9 11 22 11 9 9 15 31 33 27 31 37 39 45 53 60 70 74 77 81 74 68 72 67 66 64 63 62 51 49 46 43 43 52 53 47 45 51 43 50 63 67
Wind_Direction_500mb
180 105 184 194 190 164 119 104 4 290 192 184 210 248 188 188 183 175 181 183 188 195 202 210 209 205 200 195 189 187 187 187 187 185 190 200 197 199 199 190 214 206 173 166
61 194 210 177 167 143 121 102 287 290 283 191 345 327 164 174 196 189 189 189 192 193 201 210 215 211 207 202 201 196 197 200 195 193 195 204 209 201 190 187 196 189 204 178
142 206 159 186 128 125 116 159 199 212 21 19 73 356 115 141 157 192 203 202 196 194 202 210 216 215 213 210 207 206 202 206 207 201 204 211 207 206 202 200 198 209 204 190
174 135 168 136 179 139 186 208 185 221 91 229 127 285 1 170 212 220 218 209 209 205 206 213 220 221 217 215 212 213 209 207 212 208 211 218 224 216 213 209 206 214 210 208
237 157 161 176 219 156 216 157 177 178 168 86 320 77 267 166 218 225 220 225 215 212 213 215 220 225 223 219 217 216 214 213 214 214 218 223 224 226 224 223 215 212 219 216
186 44 85 219 251 184 107 76 43 51 89 50 229 124 354 11 325 336 252 244 239 222 212 219 221 223 227 220 218 217 216 215 216 214 221 228 226 226 226 223 221 220 229 226
0 9 326 35 43 60 89 82 28 40 52 199 5 68 211 307 351 358 325 293 239 234 226 219 217 219 221 223 220 218 218 218 216 217 219 224 226 227 225 223 223 226 233 237
108 15 5 334 37 117 84 150 151 167 171 189 63 171 187 25 10 357 357 337 290 236 222 223 220 221 223 224 224 220 220 221 220 219 222 225 230 224 222 224 224 225 233 237
123 43 323 39 15 29 209 66 188 106 5 84 220 330 50 2 7 5 2 358 347 245 226 221 220 219 223 226 227 224 224 223 223 223 224 227 229 226 225 226 225 227 229 224
144 92 37 306 11 29 88 6 66 11 128 156 33 47 321 1 359 356 2 5 1 327 225 215 213 218 222 229 230 229 228 227 228 225 226 229 229 227 228 229 232 230 228 229
75 73 319 43 21 308 5 9 23 110 93 149 134 298 9 2 9 3 2 16 22 35 68 213 217 223 224 226 228 232 230 229 230 230 229 229 230 228 228 229 232 232 231 228
2 113 66 94 299 338 42 56 113 122 217 54 117 158 8 27 14 12 21 26 40 49 58 79 176 200 211 220 224 229 232 231 233 233 231 232 234 230 230 231 232 230 231 235
162 24 86 16 332 5 44 335 77 100 89 46 119 181 45 36 19 14 20 30 37 49 54 58 66 77 143 205 221 228 233 237 236 238 236 235 236 237 234 235 237 234 233 235
82 62 129 166 151 194 349 311 352 96 94 160 159 135 39 13 21 10 14 26 34 43 49 48 46 49 58 114 195 214 226 235 240 243 244 241 240 242 240 240 241 241 236 235
87 93 76 80 109 205 239 276 293 314 137 110 202 129 21 44 42 23 22 28 33 33 40 42 40 37 38 43 108 188 217 230 238 242 244 246 247 247 246 244 245 244 244 239
16 143 114 61 346 343 30 350 79 47 36 93 109 77 32 66 59 39 31 27 26 28 36 40 37 31 31 29 23 28 218 218 232 234 241 246 251 252 249 249 248 247 246 247
70 125 90 180 346 62 347 313 357 105 59 59 118 93 32 58 56 45 34 31 23 21 16 20 27 24 24 22 15 9 324 255 247 241 238 244 246 248 252 252 249 247 246 247
127 99 90 158 44 198 241 1 336 107 78 45 89 43 24 346 338 31 32 27 20 10 6 2 5 359 13 18 17 11 0 275 229 250 238 241 246 252 250 249 247 245 248 247
73 122 83 132 179 280 263 262 86 125 120 33 61 3 348 341 322 186 14 6 359 353 348 347 346 351 340 5 16 10 12 349 276 231 188 209 230 246 250 249 240 238 243 246
66 70 108 148 164 212 210 156 127 144 262 141 117 38 344 352 354 258 311 324 324 325 331 332 334 333 342 335 353 1 359 5 1 324 300 262 230 214 226 238 242 247 244 243
41 27 139 170 205 292 207 155 144 134 216 155 82 318 320 289 277 296 306 306 307 307 306 313 316 320 324 330 315 326 340 346 359 360 339 317 275 257 240 235 241 249 265 261
167 144 176 122 151 256 162 126 174 159 133 184 319 320 310 310 311 311 310 308 307 302 297 293 295 302 308 311 316 303 309 318 328 336 344 338 324 289 252 243 242 250 256 266
217 181 180 178 211 231 175 154 187 249 258 284 320 336 333 328 326 321 314 310 307 303 299 293 286 283 292 298 301 302 291 299 311 317 329 336 326 321 309 257 250 239 248 267
221 171 166 71 210 223 213 229 229 241 240 243 267 304 317 320 324 326 325 319 312 307 303 300 290 277 275 283 288 290 297 286 288 287 300 303 315 315 306 293 245 248 252 258
186 148 159 261 256 228 236 235 244 243 229 255 279 294 303 309 311 316 316 313 310 306 306 299 293 283 270 271 276 281 291 287 281 280 282 297 298 297 308 307 271 258 250 254
189 173 163 218 201 180 194 221 237 226 240 270 285 295 300 302 303 308 309 310 309 306 301 294 292 287 273 268 268 272 279 283 284 276 274 284 289 291 297 304 304 259 261 259
Wind_Speed_850mb
9 8 10 14 12 8 7 8 1 4 8 8 17 14 15 29 27 35 46 60 61 66 74 62 61 65 61 62 61 58 54 44 39 36 32 31 26 18 16 13 8 7 15 15
9 7 15 11 14 10 5 6 4 6 3 14 7 6 8 22 9 36 44 49 58 56 62 69 66 69 71 68 67 62 56 48 39 37 34 30 23 20 15 14 12 9 14 11
12 10 12 9 7 9 5 7 6 8 7 5 3 7 5 4 9 22 39 44 44 57 68 73 72 76 78 74 72 69 62 52 44 37 41 37 26 25 20 21 17 12 12 12
7 2 10 5 4 11 3 15 11 4 4 4 4 6 2 7 9 12 22 35 51 55 61 81 74 79 86 81 75 71 68 57 48 48 51 44 35 30 25 20 18 13 10 16
11 11 7 6 13 12 15 12 13 9 6 4 4 8 10 3 14 23 30 38 50 59 64 69 88 80 81 87 81 73 72 68 50 51 56 52 45 36 28 25 23 20 16 15
1 3 6 7 5 16 8 11 14 10 7 4 4 8 11 9 14 15 9 37 53 68 60 71 73 86 81 84 84 79 75 73 56 51 51 56 52 47 39 36 30 26 21 19
12 7 12 9 1 7 11 12 5 5 4 9 9 9 2 14 12 14 21 25 59 73 65 61 71 84 89 87 92 88 80 77 68 57 54 50 53 51 47 41 35 28 28 24
6 8 14 20 6 1 4 11 11 11 11 8 4 10 9 10 23 34 30 34 28 69 80 82 74 81 86 90 95 96 90 83 74 66 58 50 49 54 55 44 43 36 30 27
7 4 10 8 10 5 1 9 5 13 6 8 3 8 3 30 32 53 54 48 54 42 75 86 88 80 84 88 90 97 95 88 81 70 62 58 53 53 59 52 48 44 34 29
2 7 5 11 12 18 14 2 6 6 8 6 7 6 6 33 40 40 51 61 69 18 55 62 67 87 83 85 88 89 97 93 84 78 68 61 57 54 54 60 53 50 43 39
4 6 9 9 16 10 12 10 10 9 6 10 8 5 13 18 26 30 43 53 64 57 14 37 45 57 68 74 83 92 94 93 93 87 78 69 63 56 55 56 60 57 48 44
7 8 9 3 7 6 9 4 5 8 6 5 7 3 11 20 31 34 41 49 65 66 51 25 15 25 44 66 73 82 89 91 87 92 87 78 68 61 57 59 58 61 60 53
2 7 7 7 11 10 11 10 5 7 5 3 8 6 12 26 30 39 39 50 57 71 66 60 40 28 18 36 60 72 76 83 84 85 91 89 79 74 65 57 57 61 63 63
15 7 6 12 6 5 4 7 7 7 7 8 3 9 15 21 24 40 43 45 51 65 69 59 59 48 31 11 29 46 59 65 66 70 77 87 87 81 75 67 60 59 63 67
9 7 6 5 2 4 5 8 9 1 7 5 9 10 12 16 22 32 42 43 52 53 62 63 58 53 45 33 8 23 34 45 56 64 67 72 78 82 82 78 74 66 62 68
8 5 4 5 6 7 4 9 7 6 7 9 17 10 9 15 29 43 46 48 47 50 48 49 51 56 57 43 34 14 15 28 38 59 68 66 67 69 71 73 76 74 70 67
7 9 5 3 6 4 6 6 2 7 8 2 6 4 10 14 24 30 39 45 49 48 45 45 44 44 49 57 45 27 13 18 23 41 44 58 67 70 70 65 69 73 72 69
10 8 5 5 3 5 8 4 3 13 12 9 9 9 14 17 10 13 28 34 38 42 44 43 44 40 40 42 50 45 27 14 12 11 37 48 52 54 57 65 69 67 67 71
6 9 6 7 5 6 3 4 5 5 6 7 6 15 16 31 25 21 15 30 32 35 37 40 42 43 36 33 38 48 45 28 16 15 17 34 51 57 61 62 63 66 66 67
10 12 8 5 7 12 7 8 9 10 5 8 5 2 14 31 7 5 24 47 46 38 37 44 43 43 39 35 25 33 46 43 33 24 19 22 24 33 40 40 47 51 61 59
6 6 10 5 4 10 7 10 13 10 7 12 1 9 13 6 16 48 58 59 54 54 50 43 45 45 40 40 36 27 31 41 46 42 33 21 29 33 31 34 32 33 28 42
10 10 7 5 5 14 19 7 11 6 5 2 3 10 22 28 39 47 51 56 58 57 58 49 48 48 47 39 38 42 32 31 39 49 51 50 26 20 44 46 36 34 39 37
4 11 8 13 10 4 23 10 7 5 5 5 11 13 20 31 37 47 59 60 62 62 64 63 56 55 52 50 38 44 44 36 30 35 42 51 54 37 25 40 53 50 43 44
7 11 6 4 5 19 25 17 16 15 12 9 8 11 21 35 46 55 63 69 70 69 67 66 61 63 65 56 52 45 45 48 37 39 38 38 42 51 35 31 36 50 56 58
8 19 11 7 14 9 22 32 27 24 21 18 22 29 35 39 49 56 62 62 72 75 69 64 67 64 67 62 61 53 44 47 42 45 49 46 43 47 57 46 37 48 54 63
20 14 9 11 22 11 9 9 15 31 33 27 31 37 39 45 53 60 70 74 77 81 74 68 72 67 66 64 63 62 51 49 46 43 43 52 53 47 45 51 43 50 63 67
Wind_Direction_850mb
180 105 184 194 190 164 119 104 4 290 192 184 210 248 188 188 183 175 181 183 188 195 202 210 209 205 200 195 189 187 187 187 187 185 190 200 197 199 199 190 214 206 173 166
61 194 210 177 167 143 121 102 287 290 283 191 345 327 164 174 196 189 189 189 192 193 201 210 215 211 207 202 201 196 197 200 195 193 195 204 209 201 190 187 196 189 204 178
142 206 159 186 128 125 116 159 199 212 21 19 73 356 115 141 157 192 203 202 196 194 202 210 216 215 213 210 207 206 202 206 207 201 204 211 207 206 202 200 198 209 204 190
174 135 168 136 179 139 186 208 185 221 91 229 127 285 1 170 212 220 218 209 209 205 206 213 220 221 217 215 212 213 209 207 212 208 211 218 224 216 213 209 206 214 210 208
237 157 161 176 219 156 216 157 177 178 168 86 320 77 267 166 218 225 220 225 215 212 213 215 220 225 223 219 217 216 214 213 214 214 218 223 224 226 224 223 215 212 219 216
186 44 85 219 251 184 107 76 43 51 89 50 229 124 354 11 325 336 252 244 239 222 212 219 221 223 227 220 218 217 216 215 216 214 221 228 226 226 226 223 221 220 229 226
0 9 326 35 43 60 89 82 28 40 52 199 5 68 211 307 351 358 325 293 239 234 226 219 217 219 221 223 220 218 218 218 216 217 219 224 226 227 225 223 223 226 233 237
108 15 5 334 37 117 84 150 151 167 171 189 63 171 187 25 10 357 357 337 290 236 222 223 220 221 223 224 224 220 220 221 220 219 222 225 230 224 222 224 224 225 233 237
123 43 323 39 15 29 209 66 188 106 5 84 220 330 50 2 7 5 2 358 347 245 226 221 220 219 223 226 227 224 224 223 223 223 224 227 229 226 225 226 225 227 229 224
144 92 37 306 11 29 88 6 66 11 128 156 33 47 321 1 359 356 2 5 1 327 225 215 213 218 222 229 230 229 228 227 228 225 226 229 229 227 228 229 232 230 228 229
75 73 319 43 21 308 5 9 23 110 93 149 134 298 9 2 9 3 2 16 22 35 68 213 217 223 224 226 228 232 230 229 230 230 229 229 230 228 228 229 232 232 231 228
2 113 66 94 299 338 42 56 113 122 217 54 117 158 8 27 14 12 21 26 40 49 58 79 176 200 211 220 224 229 232 231 233 233 231 232 234 230 230 231 232 230 231 235
162 24 86 16 332 5 44 335 77 100 89 46 119 181 45 36 19 14 20 30 37 49 54 58 66 77 143 205 221 228 233 237 236 238 236 235 236 237 234 235 237 234 233 235
82 62 129 166 151 194 349 311 352 96 94 160 159 135 39 13 21 10 14 26 34 43 49 48 46 49 58 114 195 214 226 235 240 243 244 241 240 242 240 240 241 241 236 235
87 93 76 80 109 205 239 276 293 314 137 110 202 129 21 44 42 23 22 28 33 33 40 42 40 37 38 43 108 188 217 230 238 242 244 246 247 247 246 244 245 244 244 239
16 143 114 61 346 343 30 350 79 47 36 93 109 77 32 66 59 39 31 27 26 28 36 40 37 31 31 29 23 28 218 218 232 234 241 246 251 252 249 249 248 247 246 247
70 125 90 180 346 62 347 313 357 105 59 59 118 93 32 58 56 45 34 31 23 21 16 20 27 24 24 22 15 9 324 255 247 241 238 244 246 248 252 252 249 247 246 247
127 99 90 158 44 198 241 1 336 107 78 45 89 43 24 346 338 31 32 27 20 10 6 2 5 359 13 18 17 11 0 275 229 250 238 241 246 252 250 249 247 245 248 247
73 122 83 132 179 280 263 262 86 125 120 33 61 3 348 341 322 186 14 6 359 353 348 347 346 351 340 5 16 10 12 349 276 231 188 209 230 246 250 249 240 238 243 246
66 70 108 148 164 212 210 156 127 144 262 141 117 38 344 352 354 258 311 324 324 325 331 332 334 333 342 335 353 1 359 5 1 324 300 262 230 214 226 238 242 247 244 243
41 27 139 170 205 292 207 155 144 134 216 155 82 318 320 289 277 296 306 306 307 307 306 313 316 320 324 330 315 326 340 346 359 360 339 317 275 257 240 235 241 249 265 261
167 144 176 122 151 256 162 126 174 159 133 184 319 320 310 310 311 311 310 308 307 302 297 293 295 302 308 311 316 303 309 318 328 336 344 338 324 289 252 243 242 250 256 266
217 181 180 178 211 231 175 154 187 249 258 284 320 336 333 328 326 321 314 310 307 303 299 293 286 283 292 298 301 302 291 299 311 317 329 336 326 321 309 257 250 239 248 267
221 171 166 71 210 223 213 229 229 241 240 243 267 304 317 320 324 326 325 319 312 307 303 300 290 277 275 283 288 290 297 286 288 287 300 303 315 315 306 293 245 248 252 258
186 148 159 261 256 228 236 235 244 243 229 255 279 294 303 309 311 316 316 313 310 306 306 299 293 283 270 271 276 281 291 287 281 280 282 297 298 297 308 307 271 258 250 254
189 173 163 218 201 180 194 221 237 226 240 270 285 295 300 302 303 308 309 310 309 306 301 294 292 287 273 268 268 272 279 283 284 276 274 284 289 291 297 304 304 259 261 259